{"data":{"norad_id":58171,"intl_designator":"2023-166X","name":"STARLINK-30752","alt_names":[],"object_type":"PAYLOAD","status":"ACTIVE","operator":null,"country":"US","launch_date":"2023-10-29","launch_site_code":"AFWTR","launch_vehicle":null,"mission":null,"orbit_class":"UNKNOWN","rcs_meters":null,"size_class":null,"mass_kg":null,"dimensions":null,"purposes":["comms"],"wikipedia_slug":null,"has_3d_model":false,"image_url":null,"decayed_at":null,"tle_current":{"epoch":"2026-09-20T14:16:16.240224Z","epoch_age_seconds":132332,"freshness":"FRESH","line1":"1 58171U 23166X   26263.59463241 -.00003891  00000+0 -10405-3 0  9998","line2":"2 58171  53.1632  33.3362 0000762 105.4517 254.6570 15.34412796163036","mean_motion":15.34412796,"eccentricity":7.62e-5,"inclination_deg":53.1632,"raan_deg":33.3362,"arg_perigee_deg":105.4517,"mean_anomaly_deg":254.657,"bstar":-0.00010405,"rev_number":16303,"period_min":93.846975452361,"perigee_km":462.14393893452,"apogee_km":463.18647719103,"semimajor_km":6840.8022080628,"source":"CELESTRAK","updated_at":"2026-09-21T09:00:33.825467Z"}}}